Regional Weather Roundup
Issued by NWS

Home | Current Version | Previous Version | Text Only | Print | Product List | Glossary On
Versions: 1 2 3 4 5 6 7 8 9 10 11 12 13 14 15 16 17 18 19 20 21 22 23 24 25 26 27 28 29 30 31 32 33 34 35 36 37 38 39 40 41 42 43 44 45 46 47 48 49 50
000
ASCA44 KEWX 020120
RWRMX

LATIN AMERICA AND CARIBBEAN REGIONAL WEATHER ROUNDUP
NATIONAL WEATHER SERVICE AUSTIN/SAN ANTONIO TX
800 PM CDT MON JUN 01 2015

NOTE: "FAIR" INDICATED FEW OR NO CLOUDS BELOW 12,000 FEET WITH NO
SIGNIFICANT WEATHER AND/OR OBSTRUCTIONS TO VISIBILITY.

BAJA CALIFORNIA

CITY           SKY/WX    TMP DP  RH WIND       PRES   REMARKS
LORETO         MOSUNNY  100  77  47 CALM      29.76F HX 116
LA PAZ         MOSUNNY   91  55  29 S9        29.82S
MEXICALI       PTSUNNY   99  27   8 NW22      29.76F HX  92
S.J. DEL CABO  PTSUNNY   95  48  20 E8        29.80S HX  91
TIJUANA        MOSUNNY   68  52  56 W8        30.00F

NORTHWESTERN MEXICO

CITY           SKY/WX    TMP DP  RH WIND       PRES   REMARKS
CULIACAN       SUNNY     91  72  52 SW12      29.82R HX  98
DURANGO        CLEAR     81  23  12 NE10      30.17R
GUAYMAS        SUNNY     88  73  62 S13       29.73F HX  96
HERMOSILLO     SUNNY    106  45  12 S22       29.81S HX 101
CD. JUAREZ     PTSUNNY   88  48  25 W14G26    29.97R
LOS MOCHIS     SUNNY     86  59  39 SW12      29.80R
OBREGON        SUNNY     93  59  31 SW10      29.77R HX  92

NORTHEASTERN MEXICO

CITY           SKY/WX    TMP DP  RH WIND       PRES   REMARKS
CHIHUAHUA      PTSUNNY   88  37  16 E6        30.04F
MATAMOROS      CLEAR     81  73  78 E7        30.03S
MONCLOVA         N/A    N/A N/A N/A MISG        N/A
MONTERREY      PTCLDY    81  64  57 E7        30.01R
NUEVO LAREDO   PTCLDY    90  66  45 CALM      29.98S HX  92
PIEDRAS NEGRAS   N/A    N/A N/A N/A MISG        N/A
REYNOSA        PTCLDY    79  64  61 SE9       30.00R
SALTILLO       CLEAR     72  59  64 N23       30.19R
TORREON        PTCLDY    90  41  18 N5        30.04S
CD. VICTORIA   MOCLDY    81  64  57 E8        30.01R

WESTERN MEXICO

CITY           SKY/WX    TMP DP  RH WIND       PRES   REMARKS
AGUASCALIENTES MOCLDY    75  30  19 E9        30.18R
COLIMA         MOCLDY    75  70  83 SW12      30.00
DEL BAJIO      MOCLDY    73  54  49 SW7       30.24R
GUADALAJARA    MOCLDY    77  48  36 SE6       30.11S
MANZANILLO     MOCLDY    84  77  79 SW12      29.83R HX  94
MAZATLAN       MOCLDY    82  66  57 W10       29.82R
P. VALLARTA    MOCLDY    84  77  79 SW12      29.86R HX  94
URUAPAN          N/A    N/A N/A N/A MISG        N/A
ZACATECAS      PTCLDY    73  36  25 E12       30.25S

CENTRAL MEXICO

CITY           SKY/WX    TMP DP  RH WIND       PRES   REMARKS
CUERNAVACA       N/A    N/A N/A N/A MISG        N/A
MEXICO CITY    CLOUDY    66  46  48 NE18      30.30R
MORELIA        MOCLDY    70  52  52 SW3       30.19R
POZA RICA      PTCLDY    77  72  83 CALM      30.02R
PUEBLA         RAIN      55  54  94 N9        30.35R
QUERETARO      MOCLDY    70  50  49 E15       30.28R
S. LUIS POTOSI PTCLDY    70  46  43 E12       30.22R
TAMPICO        CLEAR     81  68  65 NE6       29.99S
TOLUCA         CLOUDY    59  48  67 S9        30.36R

SOUTHERN MEXICO

CITY           SKY/WX    TMP DP  RH WIND       PRES   REMARKS
ACAPULCO       CLOUDY    84  75  74 W3        29.86R HX  92
B. DE HUATULCO   N/A    N/A N/A N/A MISG        N/A
OAXACA         LGT RAIN  64  61  88 W2        30.23R
P. ESCONDIDO     N/A    N/A N/A N/A MISG        N/A
VERACRUZ       CLOUDY    79  68  69 CALM      29.96R
ZIHUATANEJO    MOCLDY    86  73  66 S6        29.88R HX  93

YUCATAN PENINSULA

CITY           SKY/WX    TMP DP  RH WIND       PRES   REMARKS
CAMPECHE       CLOUDY    79  75  89 NE12      29.93R
CANCUN         CLOUDY    77  73  88 E2        30.01R
CHETUMAL       CLOUDY    75  73  94 CALM      29.96R
CD. DEL CARMEN LGT RAIN  79  75  89 CALM      29.94R
COZUMEL        CLOUDY    70  70 100 CALM      30.01R
MERIDA         CLOUDY    77  68  73 E3        29.98F
MINATITLAN     MOCLDY    77  68  73 N14       29.92R
TAPACHULA      MOCLDY    86  79  79 CALM      29.84R HX  99
TUX. GUTIERREZ MOCLDY    75  64  69 NW17      29.96R
VILLAHERMOSA   CLOUDY    79  75  89 NW7       29.97R

CENTRAL AMERICA

CITY           SKY/WX    TMP DP  RH WIND       PRES   REMARKS
MANAGUA        PTCLDY    86  73  66 SE9       29.77R HX  93

CARIBBEAN

CITY           SKY/WX    TMP DP  RH WIND       PRES   REMARKS
ARUBA          PTCLDY    82  75  78 E21       29.89R
KINGSTON       PTCLDY    84  75  74 E10       29.92R HX  92
SAN JUAN       PTCLDY    81  77  89 E8        30.02S
SANTO DOMINGO  PTCLDY    77  73  88 N6        30.00R
ST. CROIX      CLEAR     81  73  78 E7        30.04S
ST. KITTS      PTCLDY    79  73  83 E12       30.03S
ST. THOMAS     CLEAR     81  73  78 E8        30.02S

$$



USA.gov is the U.S. government's official web portal to all federal, state and local government web resources and services.